Location: Unspecified
(48.2082°N, 0.0000°E)
Time: 10:29:33
(UTC+00:00)

Vanguard 1 - Pass Details

Date: 02 July 2019
Orbit: 653 x 3830 km, 34.2° (Epoch: 17 October)

Event Time Altitude Azimuth Distance (km) Brightness Sun altitude
Rises 23:38:11 0° 226° (SW) 7,797 14.3 -18.5°
Reaches altitude 10° 23:43:51 10° 220° (SW) 6,898 13.9 -18.6°
Maximum altitude 00:04:33 43° 159° (SSE) 4,379 12.8 -18.7°
Drops below altitude 10° 00:20:11 10° 97° (E) 5,339 13.8 -18.6°
Sets 00:23:50 0° 90° (E) 5,977 14.1 -18.6°
